Arroyo Seco, NM

4:41 AM MST on February 08, 2016 (GMT -0700)
Taos Municipal

Weather History for KSKX - January, 2012

Change the Weather History Date:

Tuesday, January 24, 2012

  Actual Average Record
Temperature  
Mean Temperature 32 °F -  
Max Temperature 39 °F 40 °F 55 °F (2005)
Min Temperature 26 °F 12 °F 0 °F (2002)
Degree Days  
Heating Degree Days 32    
Moisture  
Dew Point 21 °F    
Average Humidity 65    
Maximum Humidity 75    
Minimum Humidity 52    
Precipitation  
Precipitation 0.00 in - - ()
Sea Level Pressure  
Sea Level Pressure 29.96 in    
Wind  
Wind Speed 5 mph (North)    
Max Wind Speed 17 mph    
Max Gust Speed 22 mph    
Visibility 10 miles    
Events      
Averages and records for this station are not official NWS values.
T = Trace of Precipitation, MM = Missing Value Source: NWS Daily Summary

Daily Weather History Graph

Daily Weather History Graph

Search for Another Location

Airport or City:

Trip Planner

Search our weather history database for the weather conditions in past years. The results will help you decide how hot, cold, wet, or windy it might be!

Date:

Astronomy

Jan. 24, 2012 Rise Set
Actual Time 7:09 AM MST 5:19 PM MST
Civil Twilight 6:42 AM MST 5:47 PM MST
Nautical Twilight 6:11 AM MST 6:18 PM MST
Astronomical Twilight 5:40 AM MST 6:49 PM MST
Moon 7:44 AM MST (1/24) 7:09 PM MST (1/24)
Length of Visible Light 11h 05m
Length of Day
10h 09m
Waxing Crescent, 3% of the Moon is Illuminated
Jan 24
Waxing Crescent
Jan 30
First Quarter
Feb 7
Full
Feb 14
Last Quarter
Feb 21
New

Hourly Weather History & Observations

Time (MST) Temp. Windchill Dew Point Humidity Pressure Visibility Wind Dir Wind Speed Gust Speed Precip Events Conditions
12:15 AM 30.2 °F 24.3 °F 17.6 °F 60% 29.93 in 10.0 mi SE 5.8 mph - N/A   Mostly Cloudy
12:35 AM 30.2 °F - 17.6 °F 60% 29.93 in 10.0 mi Calm Calm - N/A   Mostly Cloudy
12:55 AM 28.4 °F 24.6 °F 17.6 °F 64% 29.93 in 10.0 mi East 3.5 mph - N/A   Overcast
1:35 AM 28.4 °F - 19.4 °F 69% 29.93 in 10.0 mi Calm Calm - N/A   Overcast
1:55 AM 28.4 °F - 19.4 °F 69% 29.93 in 10.0 mi Calm Calm - N/A   Mostly Cloudy
2:15 AM 28.4 °F - 19.4 °F 69% 29.94 in 10.0 mi Calm Calm - N/A   Mostly Cloudy
2:35 AM 28.4 °F - 19.4 °F 69% 29.93 in 10.0 mi Calm Calm - N/A   Overcast
3:15 AM 30.2 °F 25.4 °F 19.4 °F 64% 29.93 in 10.0 mi NW 4.6 mph - N/A   Mostly Cloudy
3:35 AM 26.6 °F 21.2 °F 19.4 °F 74% 29.93 in 10.0 mi NNW 4.6 mph - N/A   Overcast
3:55 AM 28.4 °F 24.6 °F 21.2 °F 74% 29.93 in 10.0 mi North 3.5 mph - N/A   Overcast
4:15 AM 28.4 °F 23.3 °F 19.4 °F 69% 29.92 in 10.0 mi NNE 4.6 mph - N/A   Overcast
4:35 AM 30.2 °F 25.4 °F 19.4 °F 64% 29.93 in 10.0 mi NNE 4.6 mph - N/A   Overcast
4:55 AM 30.2 °F 26.7 °F 19.4 °F 64% 29.93 in 10.0 mi North 3.5 mph - N/A   Overcast
5:15 AM 30.2 °F - 19.4 °F 64% 29.94 in 10.0 mi Calm Calm - N/A   Overcast
5:35 AM 30.2 °F 25.4 °F 21.2 °F 69% 29.93 in 10.0 mi NNE 4.6 mph - N/A   Overcast
5:55 AM 28.4 °F 23.3 °F 21.2 °F 74% 29.93 in 10.0 mi NNE 4.6 mph - N/A   Scattered Clouds
6:15 AM 28.4 °F 24.6 °F 21.2 °F 74% 29.93 in 10.0 mi NNE 3.5 mph - N/A   Clear
6:35 AM 28.4 °F - 21.2 °F 74% 29.93 in 10.0 mi Calm Calm - N/A   Clear
7:15 AM 26.6 °F 20.0 °F 19.4 °F 74% 29.93 in 10.0 mi SE 5.8 mph - N/A   Scattered Clouds
7:35 AM 26.6 °F 21.2 °F 19.4 °F 74% 29.94 in 10.0 mi South 4.6 mph - N/A   Mostly Cloudy
7:55 AM 30.2 °F 25.4 °F 23.0 °F 75% 29.95 in 10.0 mi South 4.6 mph - N/A   Overcast
8:15 AM 32.0 °F - 23.0 °F 69% 29.96 in 10.0 mi Calm Calm - N/A   Mostly Cloudy
8:35 AM 32.0 °F 27.5 °F 21.2 °F 64% 29.97 in 10.0 mi North 4.6 mph - N/A   Scattered Clouds
8:55 AM 33.8 °F 29.6 °F 24.8 °F 70% 29.97 in 10.0 mi North 4.6 mph - N/A   Clear
9:15 AM 35.6 °F 28.6 °F 23.0 °F 60% 29.98 in 10.0 mi North 9.2 mph - N/A   Clear
9:35 AM 35.6 °F 28.0 °F 23.0 °F 60% 29.99 in 10.0 mi North 10.4 mph - N/A   Clear
9:55 AM 37.4 °F 28.9 °F 21.2 °F 52% 29.99 in 10.0 mi North 13.8 mph - N/A   Clear
10:15 AM 35.6 °F 27.1 °F 21.2 °F 56% 30.00 in 10.0 mi North 12.7 mph - N/A   Scattered Clouds
10:35 AM 35.6 °F 28.0 °F 21.2 °F 56% 30.00 in 10.0 mi North 10.4 mph - N/A   Mostly Cloudy
10:55 AM 39.2 °F 33.0 °F 23.0 °F 52% 29.99 in 10.0 mi North 9.2 mph - N/A   Clear
11:35 AM 39.2 °F 31.6 °F 24.8 °F 56% 29.99 in 10.0 mi North 12.7 mph - N/A   Clear
11:55 AM 39.2 °F 32.0 °F 24.8 °F 56% 29.97 in 10.0 mi NNW 11.5 mph - N/A   Scattered Clouds
12:15 PM 39.2 °F 31.6 °F 24.8 °F 56% 29.97 in 10.0 mi North 12.7 mph - N/A   Scattered Clouds
12:35 PM 39.2 °F 31.6 °F 24.8 °F 56% 29.97 in 10.0 mi North 12.7 mph - N/A   Partly Cloudy
12:55 PM - - - N/A% - - North - - N/A   Unknown
1:15 PM - - - N/A% - - North - - N/A   Unknown
1:35 PM - - - N/A% - - North - - N/A   Unknown
2:15 PM 37.4 °F 29.8 °F 24.8 °F 60% 29.97 in 10.0 mi North 11.5 mph - N/A   Unknown
2:35 PM 37.4 °F 28.2 °F 24.8 °F 60% 29.98 in 10.0 mi North 16.1 mph 21.9 mph N/A   Overcast
2:55 PM - - - N/A% 29.99 in - North 15.0 mph - N/A   Unknown
3:15 PM 35.6 °F 26.2 °F 24.8 °F 65% 30.00 in 10.0 mi North 15.0 mph - N/A   Overcast
3:55 PM 37.4 °F 27.8 °F 26.6 °F 65% 30.01 in 10.0 mi North 17.3 mph 21.9 mph N/A   Unknown
4:15 PM - - - N/A% - - North - - N/A   Unknown
4:35 PM - - - N/A% - - North - - N/A   Unknown
4:55 PM - - - N/A% - - North - - N/A   Unknown
5:15 PM - - - N/A% - - North - - N/A   Unknown
5:35 PM - - - N/A% - - North - - N/A   Unknown
5:55 PM - - - N/A% - - North - - N/A   Unknown
6:35 PM - - - N/A% - - North - - N/A   Unknown
6:55 PM - - - N/A% - - North - - N/A   Unknown
7:15 PM - - - N/A% - - North - - N/A   Unknown
7:35 PM - - - N/A% - - North - - N/A   Unknown
8:15 PM - - - N/A% - - North - - N/A   Unknown
8:35 PM - - - N/A% - - North - - N/A   Unknown
8:55 PM - - - N/A% - - North - - N/A   Unknown
9:35 PM - - - N/A% - - North - - N/A   Unknown
9:55 PM - - - N/A% - - North - - N/A   Unknown
10:15 PM - - - N/A% - - North - - N/A   Unknown
10:35 PM - - - N/A% - - North - - N/A   Unknown
10:55 PM - - - N/A% - - North - - N/A   Unknown
11:15 PM - - - N/A% - - North - - N/A   Unknown
11:35 PM - - - N/A% - - North - - N/A   Unknown
11:55 PM - - - N/A% - - North - - N/A   Unknown